Theta_e
310 310 310 312 313 314 314 314 315 316 317 317 313 311 310 310 313 315 315 316 320 321 320 320 324 326 328 327 344 344 347 351 351 348 347 343 347 346 345 346 345 345 341 341 341
310 310 310 311 313 314 315 315 316 318 318 318 315 311 310 310 312 315 315 315 320 321 319 318 323 327 325 330 345 346 348 349 347 344 343 342 346 344 343 346 346 344 344 341 343
310 310 310 312 313 315 315 317 319 320 319 318 315 311 310 312 317 325 315 317 319 321 319 318 319 322 325 336 343 347 351 348 344 342 342 346 347 344 343 345 345 345 344 342 344
309 310 310 312 314 315 316 318 320 320 317 315 313 310 314 324 329 328 327 326 322 320 319 316 324 324 322 344 347 348 344 345 345 344 346 345 346 347 345 343 345 343 343 344 344
309 310 310 312 314 315 317 319 320 319 312 311 311 319 324 328 326 325 323 319 323 324 318 320 324 323 321 341 345 345 346 345 343 347 344 341 346 347 348 346 346 343 344 343 344
308 309 310 311 314 315 318 320 320 319 318 318 320 323 325 328 325 322 316 319 324 318 316 322 321 320 328 342 342 342 346 346 347 346 345 346 346 346 347 343 346 344 343 342 343
308 309 310 312 314 317 319 321 321 321 319 320 321 324 325 326 325 324 320 315 316 316 321 320 319 321 341 345 343 344 343 342 347 347 346 343 347 347 345 345 347 344 342 340 341
309 309 310 311 315 318 320 322 322 321 321 321 322 326 329 328 325 324 324 322 319 319 319 319 319 322 345 344 344 343 342 342 341 345 346 340 346 345 345 345 347 346 344 343 342
309 309 310 311 316 320 322 324 324 322 321 321 321 322 326 326 324 323 324 324 322 320 319 319 319 332 345 340 341 344 342 345 346 343 347 341 341 344 344 344 344 343 343 343 343
311 309 310 312 318 322 324 325 326 326 325 324 325 323 325 326 324 324 324 324 322 319 318 318 319 315 316 324 336 345 347 346 348 347 344 343 341 340 343 344 344 342 342 343 342
313 310 310 312 318 322 324 324 324 326 324 326 325 326 326 325 324 323 323 321 320 319 315 316 314 316 318 320 323 341 345 346 347 348 347 344 343 340 339 341 343 344 342 343 343
317 313 310 311 317 321 323 325 323 320 323 325 325 325 327 324 322 322 323 323 320 316 316 314 314 315 317 320 327 340 340 347 343 347 345 344 344 342 338 338 342 342 342 342 343
319 317 313 311 314 320 322 324 322 322 323 325 327 327 326 325 322 322 323 322 318 316 315 314 316 317 317 325 342 343 341 345 342 346 345 344 344 342 339 337 340 341 343 343 342
320 319 316 311 314 319 324 324 324 324 319 323 326 327 326 324 323 324 321 321 320 317 315 315 317 317 317 325 340 340 339 342 341 344 342 344 345 342 341 341 338 338 340 343 345
319 319 319 316 313 316 322 324 324 325 326 327 325 325 325 324 323 323 322 321 321 321 320 321 322 325 324 334 336 338 340 337 341 342 345 348 347 341 342 344 342 339 338 339 345
318 318 319 319 315 313 318 324 324 320 327 328 325 323 323 323 322 322 322 323 322 322 320 320 323 323 324 326 333 334 337 325 331 333 337 340 346 340 343 343 339 341 341 338 341
318 318 318 319 317 316 322 323 320 323 324 325 322 322 321 321 321 320 319 319 319 321 320 319 322 322 323 322 320 317 319 320 332 335 335 332 340 334 342 340 341 338 341 340 338
318 318 319 319 317 313 317 318 323 324 326 324 322 322 322 320 319 320 320 319 317 318 318 323 324 321 321 322 321 320 317 318 325 333 331 333 336 337 342 338 341 339 339 340 340
317 318 319 318 315 312 322 319 317 321 324 324 319 321 321 322 321 321 319 318 319 317 321 322 324 324 324 320 320 321 322 320 327 331 333 335 335 335 341 342 339 340 340 340 341
316 317 320 318 314 312 318 318 320 321 323 322 322 321 321 321 323 320 320 322 324 321 320 322 325 323 324 323 322 323 320 324 325 336 337 336 338 339 340 341 340 336 339 340 341
316 318 319 316 311 320 318 315 320 323 324 322 322 321 320 322 322 323 324 325 323 323 322 320 320 323 323 323 324 322 326 326 326 327 332 333 333 333 337 336 337 338 340 342 341
316 312 318 311 315 312 314 316 322 322 322 321 320 318 319 321 323 326 327 325 323 322 325 321 317 322 325 322 320 322 325 324 325 331 330 330 330 333 336 335 338 340 339 343 342
317 314 319 318 315 314 315 319 320 321 320 321 321 321 319 320 324 325 326 324 325 323 322 321 317 319 319 318 318 320 321 321 322 324 333 331 329 333 333 335 338 340 338 337 342
315 316 323 322 318 318 321 321 322 323 320 321 320 320 318 320 320 322 325 324 325 324 322 320 313 316 316 319 319 321 320 325 324 328 328 327 329 336 333 333 334 339 338 336 337
314 316 322 320 321 320 320 321 323 323 323 323 320 320 318 320 322 323 323 323 322 323 316 312 313 316 316 318 321 321 321 320 319 320 326 322 327 330 333 331 333 337 336 331 336
314 321 319 319 321 319 318 321 323 323 322 321 321 320 319 318 319 323 320 321 321 322 319 313 316 320 322 320 321 322 322 324 330 325 330 331 334 334 332 333 333 338 339 334 333
318 315 317 319 319 319 319 323 324 321 323 323 322 320 320 319 322 324 325 324 321 318 319 317 317 318 323 319 320 319 326 328 333 333 331 331 330 335 333 335 334 335 336 331 332
Wind_Speed
10 10 9 9 10 10 11 12 12 11 11 10 7 4 3 4 7 9 8 6 9 7 5 7 6 3 4 3 3 4 3 2 5 8 3 4 5 3 4 16 10 1 25 28 28
10 10 9 9 10 11 12 13 14 13 11 10 7 4 2 2 5 8 4 9 9 6 4 4 7 5 3 2 2 3 3 2 5 6 5 4 3 8 7 16 4 20 20 30 31
10 10 9 9 10 12 13 15 16 15 11 8 6 4 3 1 3 2 5 6 8 6 3 2 5 4 4 8 8 4 1 2 6 6 14 8 4 9 15 7 22 32 34 35 32
10 10 9 9 10 12 14 16 16 13 10 5 3 4 5 4 3 3 2 5 7 8 3 3 3 4 3 5 5 2 4 5 12 17 11 8 6 7 21 7 21 33 35 35 31
10 10 9 9 10 12 14 15 15 13 9 6 7 7 4 1 2 5 7 6 12 8 5 6 1 1 2 2 8 3 5 8 14 11 10 10 5 4 10 19 22 31 33 33 31
11 11 10 10 10 12 14 14 13 11 11 10 7 5 3 1 3 8 3 5 9 8 8 5 5 10 5 8 5 9 12 8 9 11 9 9 8 3 16 29 26 30 31 32 32
12 12 11 10 10 11 13 13 11 8 8 8 7 8 3 2 2 3 6 6 7 8 7 2 6 6 8 9 17 16 6 3 3 4 3 4 2 3 7 17 26 30 32 32 33
13 13 12 11 11 11 12 11 10 7 7 7 8 9 4 2 5 3 2 1 2 3 2 3 5 2 7 21 3 4 5 3 3 5 3 4 2 2 13 15 24 27 29 32 31
14 13 13 12 10 9 10 12 10 7 7 8 8 6 6 1 6 4 3 2 2 3 4 2 2 6 11 6 4 4 2 5 6 6 2 1 4 5 16 13 18 18 24 33 33
15 13 12 11 10 8 11 14 10 8 8 10 7 5 2 1 10 8 3 1 2 4 3 3 4 3 3 4 5 6 4 3 4 2 3 2 2 1 12 15 19 22 23 26 33
17 14 12 11 9 7 9 12 17 5 25 12 14 13 15 4 9 7 5 5 5 2 2 3 4 6 9 7 4 6 4 3 4 6 4 6 4 7 9 6 7 16 30 24 31
19 16 12 10 10 8 9 11 9 13 12 16 12 14 11 8 2 7 7 3 2 3 4 5 5 10 6 7 5 9 6 4 1 5 6 7 7 5 12 10 14 10 25 24 23
20 18 15 10 9 9 7 8 16 15 3 10 4 8 7 9 7 10 10 5 3 2 4 6 7 6 6 4 5 3 7 6 4 4 4 2 6 4 5 12 18 19 12 20 24
21 20 17 11 5 8 5 9 15 11 5 6 3 3 9 8 3 10 15 5 2 7 6 6 6 9 6 6 8 5 8 8 7 5 1 1 3 5 6 8 13 21 21 16 19
21 21 18 13 11 8 6 9 10 4 3 2 4 3 8 8 2 6 13 7 4 4 4 7 3 4 4 6 10 9 15 12 11 3 1 1 2 5 4 3 6 15 21 25 22
21 22 20 17 13 10 8 8 5 5 5 2 6 4 4 5 5 4 7 7 2 0 1 6 3 3 3 4 8 9 9 8 6 4 3 2 3 4 2 3 5 15 23 28 27
24 21 21 18 12 2 4 4 5 3 4 3 6 3 3 4 3 4 5 3 3 3 4 6 2 3 4 3 4 8 7 4 3 1 5 4 4 7 4 7 7 15 27 34 35
26 23 20 17 12 8 4 4 4 5 6 4 1 2 6 7 5 4 4 1 3 4 2 1 7 2 1 6 7 3 8 5 4 3 3 3 3 5 5 4 5 12 21 27 35
27 24 19 8 10 14 8 2 7 6 3 6 5 4 3 5 4 4 6 4 6 7 6 2 4 4 1 3 7 3 2 4 7 3 2 3 6 3 2 3 5 14 12 23 27
29 25 10 7 11 19 4 6 5 4 4 3 2 1 2 3 5 7 7 3 5 7 5 5 2 2 6 4 4 3 5 3 3 4 3 4 4 4 5 4 4 6 8 15 21
24 12 9 9 18 12 4 7 4 7 6 4 2 4 3 0 5 3 4 1 3 2 4 4 3 5 2 4 3 3 2 7 5 3 5 1 5 5 7 2 6 7 12 9 16
11 4 3 18 3 0 3 6 2 3 1 5 4 10 5 3 3 3 4 5 8 5 4 2 5 1 2 4 4 3 4 5 5 3 1 3 5 3 9 1 5 4 5 14 12
19 6 7 10 2 2 5 4 4 2 4 3 4 2 4 5 4 4 2 1 4 4 6 5 3 3 7 6 5 6 3 5 5 3 5 5 5 2 9 7 1 8 3 5 13
8 3 4 2 1 2 3 5 3 4 7 7 7 2 3 5 1 6 4 2 0 6 10 7 3 6 6 5 3 3 3 3 5 3 5 6 4 6 8 8 11 8 8 4 4
3 3 3 3 3 4 3 3 3 6 6 6 4 3 9 6 3 4 3 2 6 10 4 4 4 2 2 3 3 3 2 2 5 5 6 5 9 6 9 8 17 16 8 1 3
4 3 5 8 9 4 1 1 2 3 2 6 5 10 4 7 8 8 8 4 5 2 3 2 2 4 1 3 3 2 6 1 2 4 2 1 3 3 11 12 17 21 15 7 10
5 6 5 5 4 1 2 3 4 4 8 15 8 6 5 12 15 18 19 21 10 9 3 3 6 3 3 3 3 4 3 1 2 3 1 4 3 6 5 13 21 18 13 12 5
Wind_Direction
14 12 15 15 12 10 5 2 359 354 349 344 340 327 290 252 246 246 237 190 169 161 113 147 177 218 274 314 49 67 58 206 157 153 193 182 262 103 124 137 158 240 159 158 156
10 8 9 10 5 2 359 355 350 346 343 337 334 335 333 272 239 244 225 195 187 171 147 150 170 192 244 171 178 144 136 221 167 153 134 107 307 144 122 177 111 132 151 158 159
4 4 3 4 0 357 354 351 347 344 342 334 336 352 18 28 120 81 199 183 199 218 200 196 181 235 235 163 200 104 216 128 106 135 124 121 262 164 166 226 165 153 158 162 165
359 0 360 358 356 354 351 351 352 354 351 355 25 43 75 80 121 101 14 255 221 223 197 172 154 177 236 166 162 112 280 147 130 133 147 157 283 220 187 187 173 162 162 166 171
354 356 355 353 352 352 352 355 2 6 20 50 78 75 54 46 82 2 311 232 209 216 185 170 91 346 37 96 115 75 63 96 129 141 132 157 357 8 88 159 175 165 165 172 174
351 351 351 348 348 352 353 358 8 21 42 60 61 21 3 23 41 24 24 175 184 173 168 162 352 333 64 62 64 116 102 117 120 121 137 159 206 106 161 152 161 166 170 179 178
349 347 346 345 346 352 353 357 3 4 13 20 12 350 304 89 33 345 53 98 119 143 138 108 353 9 112 88 112 120 95 33 142 107 140 131 77 99 147 161 164 171 174 182 187
349 344 343 342 342 349 350 352 349 343 342 341 338 331 275 215 227 254 308 162 158 152 131 72 10 38 93 128 143 47 353 14 136 76 129 155 175 166 183 173 178 182 190 187 186
350 343 339 336 338 344 344 340 327 317 308 311 312 323 291 239 219 159 175 129 221 233 171 310 24 104 129 110 31 15 247 317 347 156 55 133 146 175 162 171 175 176 175 188 185
350 343 336 328 326 338 342 343 336 300 294 303 293 312 310 234 165 162 170 212 164 187 204 213 117 84 64 112 195 195 200 236 260 124 140 89 118 226 172 195 157 168 173 178 185
350 342 334 320 305 313 337 2 5 348 319 271 282 272 303 236 188 193 187 177 183 138 124 21 71 199 195 201 159 175 145 173 212 154 126 197 220 185 220 165 201 151 167 176 186
347 341 333 317 286 293 325 19 20 337 301 311 299 271 270 218 217 200 193 179 139 183 125 22 235 230 167 195 212 180 138 207 234 183 188 171 210 186 180 196 207 200 171 171 181
341 338 333 323 280 276 302 12 342 342 271 300 279 258 256 210 208 195 194 196 172 141 184 170 229 127 155 213 147 162 188 190 181 174 28 334 331 156 200 201 191 220 202 187 186
336 332 332 332 281 266 273 325 340 347 52 280 245 232 212 202 264 223 202 173 163 206 183 224 263 185 157 198 159 218 166 170 136 89 200 337 284 294 159 184 190 201 209 211 197
335 329 324 319 284 268 265 313 333 345 356 175 210 204 195 174 156 219 202 180 206 237 96 267 310 102 140 211 160 226 160 161 110 66 57 298 86 269 118 196 204 217 213 213 206
331 326 317 310 291 267 265 302 326 46 257 292 188 192 150 188 189 162 181 225 265 307 281 242 275 192 213 123 184 103 85 47 55 36 357 250 133 309 355 326 245 202 198 212 209
325 320 310 299 289 226 228 324 39 148 332 237 222 166 184 188 207 161 191 180 174 60 353 326 261 286 152 91 70 74 78 38 10 19 222 126 113 247 265 267 275 198 202 204 208
323 315 302 292 274 237 206 56 197 236 247 315 228 117 178 171 232 180 156 205 213 102 87 103 324 205 237 173 174 129 143 149 173 195 252 142 230 255 207 250 63 193 210 196 198
324 318 309 296 230 191 177 112 211 210 289 330 333 119 268 238 172 143 198 215 203 173 160 152 314 294 14 157 123 185 83 162 103 7 55 273 291 278 204 224 16 126 156 188 196
329 324 327 241 183 173 108 226 225 227 7 4 353 169 147 278 164 164 180 198 161 195 160 205 88 1 300 61 56 126 156 79 21 137 218 291 280 244 253 239 137 59 119 184 197
333 326 338 138 158 165 184 227 261 270 12 4 335 286 244 189 165 190 191 46 150 115 165 119 97 289 19 40 245 9 78 55 106 103 151 172 268 223 242 137 113 161 139 150 186
345 344 345 146 113 161 182 194 249 211 51 275 229 212 213 214 58 93 175 197 156 181 75 53 136 122 196 280 314 164 127 126 116 221 104 135 272 265 252 72 79 258 184 121 153
332 291 189 236 190 245 293 272 238 267 189 245 288 38 30 238 114 139 122 92 145 103 158 188 26 24 353 354 357 56 15 98 101 86 187 138 259 316 296 297 130 192 204 98 136
324 337 317 244 211 113 9 267 257 266 259 207 244 327 217 246 212 169 145 160 246 110 117 103 113 149 182 203 196 320 5 161 120 126 174 220 226 245 259 258 275 219 194 142 121
285 280 342 315 321 337 260 285 327 7 300 250 284 211 205 184 136 154 131 84 43 126 70 100 115 159 156 255 235 238 331 157 178 187 162 243 200 220 218 240 269 279 231 131 173
277 326 338 299 294 299 283 138 31 332 241 284 204 267 238 183 176 189 134 145 181 190 106 20 159 147 149 287 64 359 340 213 67 131 256 189 229 246 200 229 253 248 262 277 354
252 278 278 277 302 355 223 337 318 7 282 239 260 280 248 240 194 178 169 170 164 149 137 115 132 104 223 334 20 358 324 131 27 25 146 195 205 155 242 245 248 258 275 300 327